Flag for Romania Weather past 2 weeks in Bucharest, Romania

50 °F

Partly sunny.

Feels Like: 48 °F
Forecast: 40 / 53 °F
Wind: 6 mph from Northeast

Location: Bucharest / Imh

Current Time: Oct 13, 2015 at 5:21:14 PM

Latest Report: Oct 13, 2015 at 5:00 PM

Visibility: N/A

Pressure: 30.24 "Hg

Humidity: 76%

Dew point: 43 °F

Location of BucharestLocation

Historic Weather in Bucharest — Graph


Bucharest temperature yesterday

Maximum temperature yesterday: 46 °F (at 12:00 AM)
Minimum temperature yesterday: 45 °F (at 3:30 AM)
Average temperature yesterday: 45 °F

Past Weeks' High & Low Weather Summary

High75 °F (Oct 5, 3:00 PM)100% (Sep 29, 12:30 AM)30.45 "Hg (Sep 29, 12:30 AM)
Low45 °F (Oct 12, 3:30 AM)47% (Oct 8, 12:30 PM)29.77 "Hg (Oct 11, 3:30 PM)
Average56 °F79%30.14 "Hg
* Reported Sep 28 4:00 PM — Oct 13 4:00 PM, Bucharest, Weather by CustomWeather, © 2015

Note: Actual official high and low records may vary slightly from our data, if they occured in-between our weather recording intervals... More about our weather records


Bucharest weather history for previous 24 hours

Time TempWeatherWind HumidityBarometerVisibility
4:00 PM
Tue, Oct 13
50 °FPartly sunny.6 mph76%30.24 "HgN/A
3:30 PM50 °FOvercast.6 mph76%30.24 "HgN/A
3:00 PM50 °FOvercast.8 mph76%30.24 "HgN/A
2:30 PM50 °FOvercast.7 mph76%30.24 "HgN/A
2:00 PM48 °FPartly sunny.7 mph82%30.24 "HgN/A
1:30 PM48 °FOvercast.5 mph82%30.24 "HgN/A
1:00 PM48 °FOvercast.5 mph82%30.24 "HgN/A
12:30 PM48 °FOvercast.6 mph82%30.24 "HgN/A
12:00 PM48 °FOvercast.3 mph82%30.24 "HgN/A
11:30 AM48 °FMore clouds than sun.3 mph94%30.24 "HgN/A
11:00 AM48 °FMore clouds than sun.2 mph94%30.24 "HgN/A
10:30 AM46 °FOvercast.3 mph100%30.24 "HgN/A
10:00 AM46 °FLow clouds.2 mph93%30.21 "HgN/A
9:30 AM46 °FLow clouds.2 mph93%30.21 "HgN/A
9:00 AM46 °FOvercast.2 mph93%30.21 "HgN/A
8:30 AM46 °FOvercast.2 mph93%30.18 "HgN/A
8:00 AM45 °FMostly cloudy.3 mph100%30.18 "HgN/A
7:30 AM45 °FPartly cloudy.3 mph100%30.18 "HgN/A
7:00 AM45 °FDrizzle. Fog.2 mph100%30.18 "Hg3 mi
6:30 AM45 °FDrizzle. Fog.2 mph100%30.18 "Hg3 mi
6:00 AM45 °FFog.1 mph93%30.18 "Hg3 mi
5:30 AM45 °FDrizzle. Fog.2 mph100%30.18 "Hg3 mi
5:00 AM45 °FFog.3 mph100%30.18 "Hg2 mi
4:30 AM45 °FFog.3 mph100%30.18 "Hg2 mi
4:00 AM46 °FDrizzle. Fog.3 mph93%30.18 "Hg2 mi
3:30 AM45 °FDrizzle. Fog.2 mph100%30.18 "Hg2 mi
3:00 AM45 °FDrizzle. Fog.3 mph93%30.18 "Hg2 mi
2:30 AM45 °FDrizzle. Fog.5 mph93%30.18 "Hg2 mi
2:00 AM45 °FDrizzle. Fog.8 mph93%30.18 "Hg2 mi
1:30 AM45 °FFog.5 mph93%30.15 "Hg3 mi
1:00 AM45 °FDrizzle. Fog.7 mph93%30.15 "Hg2 mi
12:30 AM45 °FDrizzle. Fog.6 mph93%30.15 "Hg2 mi
12:00 AM45 °FDrizzle. Fog.7 mph100%30.15 "Hg2 mi
11:30 PM
Mon, Oct 12
45 °FDrizzle. Fog.7 mph100%30.15 "Hg2 mi
11:00 PM46 °FDrizzle. Fog.6 mph93%30.15 "Hg3 mi
10:30 PM46 °FDrizzle. Fog.6 mph93%30.15 "Hg2 mi
10:00 PM46 °FDrizzle. Fog.5 mph93%30.15 "Hg1 mi
9:30 PM46 °FDrizzle. Fog.5 mph93%30.15 "Hg1 mi
9:00 PM46 °FDrizzle. Fog.3 mph93%30.15 "Hg2 mi
8:30 PM45 °FDrizzle. Fog.3 mph100%30.12 "Hg1 mi
8:00 PM45 °FDrizzle. Fog.7 mph100%30.12 "Hg2 mi
7:30 PM45 °FLight rain. Fog.7 mph100%30.12 "Hg2 mi
7:00 PM45 °FDrizzle. Fog.6 mph93%30.09 "Hg1 mi
6:30 PM45 °FDrizzle. Fog.6 mph93%30.09 "Hg1 mi
6:00 PM45 °FDrizzle. Fog.6 mph93%30.09 "Hg1 mi
5:30 PM45 °FFog.7 mph93%30.09 "Hg1 mi
5:00 PM45 °FFog.3 mph100%30.07 "Hg1 mi
Weather by CustomWeather, © 2015

See weather overviewHow to use our weather pages